{"data":{"norad_id":59643,"intl_designator":"2024-082N","name":"STARLINK-31800","alt_names":[],"object_type":"PAYLOAD","status":"ACTIVE","operator":null,"country":"US","launch_date":"2024-05-03","launch_site_code":"AFETR","launch_vehicle":null,"mission":null,"orbit_class":"UNKNOWN","rcs_meters":null,"size_class":null,"mass_kg":null,"dimensions":null,"purposes":["comms"],"wikipedia_slug":null,"has_3d_model":false,"image_url":null,"decayed_at":null,"tle_current":{"epoch":"2026-05-25T03:40:45.049152Z","epoch_age_seconds":61097,"freshness":"FRESH","line1":"1 59643U 24082N   26145.15329918  .00005048  00000+0  19284-3 0  9992","line2":"2 59643  43.0008  68.1739 0001378 279.0018  81.0677 15.27577542116602","mean_motion":15.27577542,"eccentricity":0.0001378,"inclination_deg":43.0008,"raan_deg":68.1739,"arg_perigee_deg":279.0018,"mean_anomaly_deg":81.0677,"bstar":0.00019284,"rev_number":11660,"period_min":94.266900396733,"perigee_km":482.11098372752,"apogee_km":484.00192864405,"semimajor_km":6861.1934561858,"source":"CELESTRAK","updated_at":"2026-05-25T13:38:19.015310Z"}}}